Location: Maddington
(51.2000°N, 1.9167°W)
Time: 17:25:49
(UTC+00:00)

Cosmos 1805 - Pass Details

Date: 18 September 2020
Orbit: 524 x 531 km, 82.5° (Epoch: 30 October)

Event Time Altitude Azimuth Distance (km) Brightness Sun altitude
Exits shadow 20:36:30 83° 129° (SE) 542 3.1 -21.9°
Maximum altitude 20:36:35 84° 99° (E) 541 3.1 -21.9°
Drops below altitude 10° 20:40:31 10° 12° (NNE) 1,794 6.2 -22.4°
Sets 20:42:41 0° 12° (NNE) 2,691 7.1 -22.7°
